G4YTK Weather Reports


time (UTC)temp
F
wind
direction
speed
knots
gust
knots
rain 1hr
in
rain 24hr
in
rain mn
in
humidity
%
barometer
mb
20260507160007 59 150 2.6 6.1 0.00 0.00 0.00 14 1014.8
20260507153004 59 140 2.6 7.8 0.00 0.00 0.00 19 1015.0
20260507151504 60 123 3.5 6.1 0.00 0.00 0.00 45 1015.0
20260507150018 59 128 5.2 12.2 0.00 0.00 0.00 49 1015.2
20260507144504 61 176 3.5 13.0 0.00 0.00 0.00 48 1015.2
20260507143004 60 198 1.7 3.5 0.00 0.00 0.00 55 1015.5
20260507141504 60 132 2.6 9.6 0.00 0.00 0.00 43 1015.6
20260507140008 60 169 1.7 5.2 0.00 0.00 0.00 70 1015.7
20260507134504 60 146 3.5 7.0 0.00 0.00 0.00 49 1015.8
20260507133004 60 205 3.5 9.6 0.00 0.00 0.00 100 1015.7
20260507130007 60 206 2.6 7.0 0.00 0.00 0.00 100 1015.9
20260507124504 59 209 3.5 9.6 0.00 0.00 0.00 100 1016.0
20260507123005 58 150 2.6 7.0 0.00 0.00 0.00 100 1016.2
20260507121504 58 150 3.5 8.7 0.00 0.00 0.00 100 1016.2
20260507113007 57 159 4.3 10.4 0.00 0.00 0.00 100 1016.5
20260507111506 56 211 4.3 7.8 0.00 0.00 0.00 100 1016.5
20260507104504 55 360 2.6 7.8 0.00 0.00 0.00 100 1016.6
20260507103005 54 360 2.6 7.0 0.00 0.00 0.00 100 1016.7
20260507101504 53 360 3.5 8.7 0.00 0.00 0.00 100 1016.8
20260507100006 52 360 3.5 7.0 0.00 0.00 0.00 100 1016.8
20260507094503 51 360 2.6 5.2 0.00 0.00 0.00 100 1016.7
20260507093004 50 360 2.6 5.2 0.00 0.00 0.00 100 1016.8
20260507091503 49 360 3.5 5.2 0.00 0.00 0.00 100 1016.8
20260507090006 49 360 2.6 7.0 0.00 0.00 0.00 100 1016.7
20260507074503 47 360 2.6 7.0 0.00 0.00 0.00 100 1016.8
20260507073004 46 360 3.5 7.8 0.00 0.00 0.00 100 1016.7
20260507071503 45 360 3.5 7.0 0.00 0.00 0.00 100 1016.6
20260507070010 44 360 4.3 8.7 0.00 0.00 0.00 100 1016.6
20260507064503 44 360 3.5 7.0 0.00 0.00 0.00 100 1016.4
20260507063004 43 360 3.5 7.0 0.00 0.00 0.00 100 1016.5
20260507061503 43 360 2.6 5.2 0.00 0.00 0.00 100 1016.5
20260507060008 42 360 3.5 7.0 0.00 0.00 0.00 100 1016.5
20260507054504 42 360 3.5 7.8 0.00 0.00 0.00 100 1016.4
20260507051503 42 360 2.6 7.0 0.00 0.00 0.00 100 1016.3
20260507044503 41 360 3.5 5.2 0.00 0.00 0.00 100 1016.4
20260507043003 41 360 4.3 7.0 0.00 0.00 0.00 100 1016.2
20260507041503 41 360 3.5 7.8 0.00 0.00 0.00 100 1016.2
20260507040006 41 360 1.7 2.6 0.00 0.00 0.00 100 1016.2
20260507034503 41 360 3.5 5.2 0.00 0.00 0.00 100 1016.2
20260507033004 41 360 3.5 5.2 0.00 0.00 0.00 100 1016.2
20260507031503 41 360 2.6 4.3 0.00 0.00 0.00 100 1016.3
20260507030006 41 360 2.6 5.2 0.00 0.00 0.00 100 1016.4
20260507023003 42 360 3.5 7.8 0.00 0.00 0.00 100 1016.3
20260507021503 42 360 2.6 5.2 0.00 0.00 0.00 100 1016.1
20260507020007 42 360 3.5 5.2 0.00 0.00 0.00 100 1016.3
20260507014503 42 360 3.5 7.0 0.00 0.00 0.00 100 1016.3
20260507013003 42 360 3.5 7.0 0.00 0.00 0.00 100 1016.4
20260507011503 42 360 3.5 5.2 0.00 0.00 0.00 100 1016.5
20260507010007 42 360 3.5 5.2 0.00 0.00 0.00 100 1016.6
20260507004503 42 360 3.5 7.0 0.00 0.00 0.00 100 1016.6
20260507003004 42 360 4.3 7.8 0.00 0.00 0.00 100 1016.6
20260507001503 42 360 3.5 7.8 0.00 0.00 0.00 100 1016.6
20260507000008 42 360 4.3 7.8 0.00 0.00 0.00 100 1016.8
20260506233005 42 360 3.5 7.0 0.00 0.00 0.00 100 1016.8
20260506231505 42 360 3.5 7.8 0.00 0.00 0.00 100 1016.7
20260506230010 42 360 2.6 5.2 0.00 0.00 0.00 100 1016.8
20260506224505 42 360 3.5 7.0 0.00 0.00 0.00 100 1016.7
20260506223005 43 360 4.3 7.0 0.00 0.00 0.00 100 1016.7
20260506221505 43 360 3.5 7.0 0.00 0.00 0.00 100 1016.6
20260506220007 43 360 4.3 7.0 0.00 0.00 0.00 100 1016.5
20260506214502 43 360 4.3 9.6 0.00 0.00 0.00 100 1016.5
20260506213005 44 360 3.5 7.8 0.00 0.00 0.00 100 1016.4
20260506211504 44 360 3.5 7.0 0.00 0.00 0.00 100 1016.4
20260506204504 45 360 3.5 7.0 0.00 0.00 0.00 100 1016.2
20260506203004 45 360 3.5 7.8 0.00 0.00 0.00 100 1016.1
20260506201504 46 360 3.5 7.0 0.00 0.00 0.00 100 1015.9
20260506200007 46 360 4.3 7.0 0.00 0.00 0.00 100 1015.7
20260506194504 47 360 4.3 8.7 0.00 0.00 0.00 100 1015.5
20260506193004 47 360 5.2 9.6 0.00 0.00 0.00 100 1015.4
20260506184504 49 360 6.1 10.4 0.00 0.00 0.00 100 1015.4
20260506183005 50 360 6.1 10.4 0.00 0.00 0.00 100 1015.4
20260506181504 50 360 6.1 10.4 0.00 0.00 0.00 100 1015.4
20260506180007 50 360 7.8 12.2 0.00 0.00 0.00 100 1015.3
20260506174504 51 360 6.1 11.3 0.00 0.00 0.00 100 1015.3
20260506173004 52 360 7.0 11.3 0.00 0.00 0.00 100 1015.1
20260506170007 53 75 4.3 10.4 0.00 0.00 0.00 100 1014.9
20260506164504 52 360 6.1 12.2 0.00 0.00 0.00 100 1014.9
20260506163004 53 360 7.0 11.3 0.00 0.00 0.00 100 1015.0
20260506161504 53 360 6.1 11.3 0.00 0.00 0.00 100 1015.0